Latest Coastal Weather Observations for Flinders Island Airport

IDT60701

Issued at 3:03 pm EST Sunday 25 June 2017 (issued every 10 minutes, with the page automatically refreshed every 10 minutes)

About coastal observations | Map of coastal stations | Coastal observations for TAS | Marine services | Other Formats
Station Details ID: 099005 Name: FLINDERS ISLAND AIRPORT Lat: -40.09 Lon: 148.00 Height: 9.0 m
Data from the previous 72 hours. | See also: Recent months at Flinders Island Airport
Date/Time
EST
Temp
°C
Wind Pressure Rain since
9am
mm
Weather Cloud Vis
km
Sea
Height
m
Swell
Dir  Spd
kts
Gust
kts
hPa Trend Height
m
Period
s
Dir
25/03:00pm 11.9 WNW 25 34 1007.9 - 2.8 Recent precip. Cloudy 10 - - - -
25/02:34pm 12.0 WNW 22 33 1008.1 - 2.8 - Partly cloudy 10 - - - -
25/02:30pm 11.8 WNW 22 30 1008.1 - 2.8 - Partly cloudy 10 - - - -
25/02:22pm 11.6 WNW 24 33 1008.1 - 2.8 - Partly cloudy 10 - - - -
25/02:06pm 11.1 WNW 25 41 1008.2 - 2.8 - Partly cloudy 5 - - - -
25/02:00pm 11.8 WNW 22 41 1008.1 - 2.4 - Partly cloudy 10 - - - -
25/01:30pm 11.6 WNW 24 34 1008.4 - 2.2 - Partly cloudy 9 - - - -
25/01:19pm 11.7 WNW 23 33 1008.5 - 2.2 - Partly cloudy 9 - - - -
25/01:00pm 11.4 WNW 22 30 1008.7 - 2.2 - Partly cloudy 7 - - - -
25/12:30pm 11.4 WNW 22 32 1009.0 - 2.2 - Partly cloudy 10 - - - -
25/12:19pm 11.6 WNW 18 28 1009.1 - 2.2 - Partly cloudy 10 - - - -
25/12:00pm 11.1 WNW 21 28 1009.5 - 2.2 - Cloudy 10 - - - -
25/11:30am 10.6 WNW 20 28 1010.2 - 2.2 - Partly cloudy 10 - - - -
25/11:19am 11.1 WNW 20 31 1010.3 - 2.2 - Partly cloudy 10 - - - -
25/11:00am 11.2 WNW 20 29 1010.7 - 2.2 - Partly cloudy 10 - - - -
25/10:59am 11.1 WNW 19 29 1010.6 - 2.2 - Partly cloudy 10 - - - -
25/10:42am 10.6 WNW 21 28 1011.1 - 2.0 - Partly cloudy 5 - - - -
25/10:30am 10.9 WNW 19 29 1011.1 - 1.6 - Partly cloudy 10 - - - -
25/10:09am 10.7 WNW 19 29 1011.2 - 1.4 - Partly cloudy 10 - - - -
25/10:06am 10.7 WNW 19 29 1011.3 - 1.4 - Partly cloudy 10 - - - -
25/10:00am 10.4 WNW 17 22 1011.3 - 1.4 - Partly cloudy 6 - - - -
25/09:54am 10.3 WNW 18 28 1011.3 - 1.4 - Partly cloudy 4 - - - -
25/09:51am 10.3 WNW 19 28 1011.3 - 1.2 - Partly cloudy 5 - - - -
25/09:49am 10.2 WNW 19 28 1011.3 - 1.0 - Partly cloudy 7 - - - -
25/09:48am 10.5 WNW 18 28 1011.3 - 1.0 - Partly cloudy 9 - - - -
25/09:33am 10.2 WNW 22 31 1011.2 - 0.4 - Partly cloudy 5 - - - -
25/09:30am 10.2 W 20 31 1011.2 - 0.4 - Partly cloudy 8 - - - -
25/09:27am 10.4 WNW 17 31 1011.1 - 0.2 - Partly cloudy 10 - - - -
25/09:08am 10.3 WNW 18 27 1011.2 - 0.0 - Partly cloudy 10 - - - -
25/09:03am 10.1 WNW 18 25 1011.2 - 0.0 - Partly cloudy 10 - - - -
25/09:00am 10.0 WNW 18 25 1011.2 - 2.2 Recent precip. Cloudy 9 - - - -
25/08:50am 10.0 WNW 18 26 1011.2 - 2.2 - Partly cloudy 3 - - - -
25/08:44am 10.2 WNW 18 26 1011.2 - 1.6 - Partly cloudy 5 - - - -
25/08:39am 10.2 WNW 15 22 1011.3 - 1.6 - Partly cloudy 10 - - - -
25/08:30am 9.7 WNW 18 27 1011.3 - 1.6 - Partly cloudy 6 - - - -
25/08:28am 9.7 WNW 20 30 1011.3 - 1.6 - Partly cloudy 5 - - - -
25/08:25am 9.7 WNW 22 30 1011.3 - 1.4 - Partly cloudy 5 - - - -
25/08:17am 10.5 WNW 19 29 1011.2 - 1.4 - Partly cloudy 10 - - - -
25/08:00am 10.6 WNW 19 26 1011.2 - 1.4 - Partly cloudy 10 - - - -
25/07:30am 9.8 WNW 18 26 1011.1 - 1.4 - Partly cloudy 10 - - - -
25/07:00am 10.5 NW 15 20 1011.1 - 1.0 - Partly cloudy 10 - - - -
25/06:30am 10.6 WNW 18 24 1011.1 - 1.0 - Partly cloudy 10 - - - -
25/06:03am 9.9 WNW 17 27 1011.1 - 1.0 - Partly cloudy 9 - - - -
25/06:00am 10.1 WNW 19 27 1011.1 - 0.8 - Cloudy 10 - - - -
25/05:30am 10.5 WNW 18 25 1011.1 - 0.8 - Partly cloudy 10 - - - -
25/05:00am 10.0 WNW 16 26 1011.2 - 0.8 - Partly cloudy 10 - - - -
25/04:57am 10.2 WNW 15 26 1011.2 - 0.8 - Partly cloudy 10 - - - -
25/04:30am 10.4 WNW 20 27 1011.4 - 0.8 - Partly cloudy 10 - - - -
25/04:07am 10.0 WNW 21 26 1011.5 - 0.8 - Partly cloudy 10 - - - -
25/04:00am 9.9 WNW 19 27 1011.5 - 0.8 - Partly cloudy 6 - - - -
25/03:57am 9.7 WNW 18 27 1011.5 - 0.8 - Partly cloudy 5 - - - -
25/03:51am 9.7 WNW 17 27 1011.6 - 0.8 - Partly cloudy 10 - - - -
25/03:44am 9.8 W 16 21 1011.6 - 0.6 - Partly cloudy 10 - - - -
25/03:31am 9.8 W 19 26 1011.8 - 0.6 - Partly cloudy 5 - - - -
25/03:30am 9.8 W 19 26 1011.8 - 0.6 - Partly cloudy 6 - - - -
25/03:00am 10.3 WNW 15 24 1012.0 - 0.4 - Partly cloudy 10 - - - -
25/02:44am 10.4 WNW 15 25 1012.2 - 0.4 - Partly cloudy 10 - - - -
25/02:30am 10.8 WNW 17 22 1012.2 - 0.4 - Partly cloudy 10 - - - -
25/02:05am 10.3 WNW 18 28 1012.3 - 0.4 - Partly cloudy 10 - - - -
25/02:00am 10.3 WNW 15 21 1012.2 - 0.4 - Partly cloudy 10 - - - -
25/01:30am 10.7 WNW 17 20 1012.3 - 0.4 - Partly cloudy 10 - - - -
25/01:00am 9.6 WNW 17 26 1012.6 - 0.4 - Partly cloudy 10 - - - -
25/12:30am 10.9 W 17 22 1012.6 - 0.4 - Partly cloudy 10 - - - -
25/12:00am 10.2 WSW 17 20 1012.9 - 0.4 - Cloudy 10 - - - -
 
Date/Time
EST
Temp
°C
Wind Pressure Rain since
9am
mm
Weather Cloud Vis
km
Sea
Height
m
Swell
Dir  Spd
kts
Gust
kts
hPa Trend Height
m
Period
s
Dir
24/11:30pm 10.4 W 18 20 1013.2 - 0.4 - Partly cloudy 10 - - - -
24/11:17pm 9.9 WNW 16 26 1013.3 - 0.4 - Partly cloudy 10 - - - -
24/11:00pm 10.0 W 15 21 1013.5 - 0.4 - Partly cloudy 10 - - - -
24/10:30pm 9.9 W 19 27 1013.7 - 0.4 - Partly cloudy 10 - - - -
24/10:00pm 10.3 W 15 20 1013.7 - 0.4 - Partly cloudy 10 - - - -
24/09:30pm 10.0 W 16 23 1013.9 - 0.4 - Partly cloudy 10 - - - -
24/09:00pm 9.8 W 17 22 1014.0 - 0.4 Recent precip. Cloudy 10 - - - -
24/08:58pm 9.7 W 17 22 1014.0 - 0.4 - Partly cloudy 10 - - - -
24/08:44pm 9.7 W 16 22 1014.0 - 0.4 - Partly cloudy 5 - - - -
24/08:30pm 9.8 WNW 15 20 1014.1 - 0.2 - Partly cloudy 10 - - - -
24/08:17pm 10.3 W 18 21 1014.0 - 0.2 - Partly cloudy 10 - - - -
24/08:00pm 9.9 WSW 20 26 1014.0 - 0.2 - Partly cloudy 10 - - - -
24/07:30pm 10.0 W 19 23 1013.9 - 0.2 - Partly cloudy 10 - - - -
24/07:11pm 10.5 W 17 32 1013.8 - 0.0 - Partly cloudy 10 - - - -
24/07:00pm 10.0 W 19 26 1013.8 - 0.0 - Partly cloudy 10 - - - -
24/06:30pm 10.0 WSW 21 26 1013.7 - 0.0 - Partly cloudy 10 - - - -
24/06:18pm 10.3 W 18 30 1013.6 - 0.0 - Partly cloudy 10 - - - -
24/06:00pm 9.9 W 17 22 1013.6 - 0.0 - Partly cloudy 10 - - - -
24/05:30pm 10.1 W 18 28 1013.5 - 0.0 - Partly cloudy 10 - - - -
24/05:16pm 9.4 W 19 29 1013.6 - 0.0 - Partly cloudy 9 - - - -
24/05:00pm 10.3 W 18 22 1013.4 - 0.0 - Partly cloudy 10 - - - -
24/04:30pm 10.4 W 20 29 1013.3 - 0.0 - Partly cloudy 10 - - - -
24/04:00pm 10.7 W 23 27 1013.1 - 0.0 - Partly cloudy 10 - - - -
24/03:30pm 10.4 W 23 31 1013.0 - 0.0 - Partly cloudy 10 - - - -
24/03:00pm 10.6 W 22 30 1012.9 - 0.0 - Cloudy 10 - - - -
24/02:30pm 10.0 WSW 20 27 1013.1 - 0.0 - Partly cloudy 10 - - - -
24/02:00pm 11.2 W 21 27 1013.0 - 0.0 - Partly cloudy 10 - - - -
24/01:30pm 11.0 WSW 21 26 1013.1 - 0.0 - Partly cloudy 10 - - - -
24/01:00pm 11.3 WSW 22 28 1013.3 - 0.0 - Partly cloudy 10 - - - -
24/12:30pm 9.6 W 23 29 1013.7 - 0.0 - Partly cloudy 10 - - - -
24/12:00pm 10.5 W 21 28 1013.9 - 0.0 - Mostly clear 10 - - - -
24/11:30am 10.9 WSW 22 28 1014.2 - 0.0 - - 10 - - - -
24/11:00am 10.9 W 22 27 1014.4 - 0.0 - Partly cloudy 10 - - - -
24/10:30am 10.7 W 19 22 1014.5 - 0.0 - Partly cloudy 10 - - - -
24/10:14am 10.6 W 16 26 1014.5 - 0.0 - Partly cloudy 10 - - - -
24/10:00am 9.0 W 20 28 1014.5 - 0.0 - Partly cloudy 10 - - - -
24/09:58am 9.2 WSW 20 28 1014.6 - 0.0 - Partly cloudy 10 - - - -
24/09:55am 10.0 WSW 18 28 1014.5 - 0.0 - Partly cloudy 10 - - - -
24/09:30am 10.6 WSW 20 26 1014.3 - 0.0 - Partly cloudy 10 - - - -
24/09:00am 10.1 WSW 20 23 1014.2 - 2.8 - - 10 - - - -
24/08:30am 9.6 WSW 18 21 1014.0 - 2.8 - Partly cloudy 10 - - - -
24/08:00am 9.3 WSW 18 22 1013.8 - 2.8 - Partly cloudy 10 - - - -
24/07:30am 9.0 WSW 16 19 1013.4 - 2.8 - - 10 - - - -
24/07:00am 8.7 WSW 17 22 1013.2 - 2.8 - Partly cloudy 10 - - - -
24/06:30am 8.9 SW 17 22 1012.9 - 2.8 - Partly cloudy 10 - - - -
24/06:00am 8.9 SW 20 26 1012.4 - 2.8 - Partly cloudy 10 - - - -
24/05:30am 9.0 SW 19 26 1012.1 - 2.8 - Partly cloudy 10 - - - -
24/05:00am 9.1 SW 22 29 1011.6 - 2.8 - - 10 - - - -
24/04:30am 9.2 SW 23 30 1011.4 - 2.8 - Partly cloudy 10 - - - -
24/04:00am 9.1 WSW 21 28 1010.7 - 2.8 - Partly cloudy 10 - - - -
24/03:30am 9.1 WSW 23 30 1010.5 - 2.8 - Partly cloudy 10 - - - -
24/03:09am 9.4 WSW 24 34 1010.6 - 2.8 - Partly cloudy 10 - - - -
24/03:00am 9.4 WSW 24 32 1010.6 - 2.8 - Mostly clear 10 - - - -
24/02:30am 9.3 WSW 26 31 1010.2 - 2.8 - Partly cloudy 10 - - - -
24/02:00am 9.7 WSW 25 33 1009.9 - 2.8 - Partly cloudy 10 - - - -
24/01:30am 9.6 WSW 27 33 1009.5 - 2.8 - - 10 - - - -
24/01:00am 9.8 WSW 27 33 1009.2 - 2.8 - - 10 - - - -
24/12:30am 10.0 WSW 25 33 1009.0 - 2.8 - Partly cloudy 10 - - - -
24/12:00am 10.0 WSW 27 33 1008.8 - 2.8 - Mostly cloudy 10 - - - -
 
Date/Time
EST
Temp
°C
Wind Pressure Rain since
9am
mm
Weather Cloud Vis
km
Sea
Height
m
Swell
Dir  Spd
kts
Gust
kts
hPa Trend Height
m
Period
s
Dir
23/11:38pm 10.3 WSW 26 36 1008.6 - 2.8 - Partly cloudy 10 - - - -
23/11:30pm 10.3 WSW 27 34 1008.4 - 2.8 - Partly cloudy 10 - - - -
23/11:00pm 10.5 WSW 29 36 1008.3 - 2.8 - Partly cloudy 10 - - - -
23/10:30pm 10.8 WSW 25 33 1007.9 - 2.8 - Partly cloudy 10 - - - -
23/10:21pm 10.7 WSW 27 37 1007.9 - 2.8 - Partly cloudy 10 - - - -
23/10:00pm 10.9 WSW 28 34 1007.8 - 2.8 - Partly cloudy 10 - - - -
23/09:30pm 11.4 WSW 29 37 1007.1 - 2.8 - Partly cloudy 10 - - - -
23/09:06pm 12.1 WSW 30 40 1006.6 - 2.8 - Partly cloudy 10 - - - -
23/09:00pm 12.1 WSW 30 38 1006.5 - 2.8 Recent precip. Cloudy 10 - - - -
23/08:31pm 11.0 W 27 38 1006.3 - 2.6 - Partly cloudy 6 - - - -
23/08:30pm 11.1 W 27 38 1006.3 - 2.6 - Partly cloudy 6 - - - -
23/08:25pm 11.5 WNW 23 34 1006.3 - 2.6 - Partly cloudy 6 - - - -
23/08:21pm 11.5 WNW 23 29 1006.3 - 2.6 - Partly cloudy 5 - - - -
23/08:00pm 11.1 WNW 22 29 1006.4 - 2.6 - Partly cloudy 10 - - - -
23/07:57pm 11.0 WNW 21 29 1006.3 - 2.6 - Partly cloudy 9 - - - -
23/07:30pm 10.3 W 25 33 1006.6 - 2.0 - Partly cloudy 2 - - - -
23/07:21pm 10.4 W 30 42 1006.5 - 1.0 - Partly cloudy 3 - - - -
23/07:18pm 10.6 W 29 42 1006.4 - 0.4 - Partly cloudy 5 - - - -
23/07:16pm 11.7 WNW 26 42 1006.4 - 0.0 - Partly cloudy 10 - - - -
23/07:14pm 13.6 WNW 24 42 1006.1 - 0.0 - Partly cloudy 10 - - - -
23/07:00pm 13.5 WNW 23 32 1006.2 - 0.0 - Partly cloudy 10 - - - -
23/06:30pm 13.7 WNW 24 34 1006.2 - 0.0 - Partly cloudy 10 - - - -
23/06:00pm 13.7 WNW 23 36 1006.3 - 0.0 - Cloudy 10 - - - -
23/05:30pm 13.6 NW 23 33 1006.2 - 0.0 - Partly cloudy 10 - - - -
23/05:01pm 13.2 WNW 25 36 1006.7 - 0.0 - Partly cloudy 10 - - - -
23/05:00pm 13.2 WNW 25 33 1006.8 - 0.0 - Partly cloudy 10 - - - -
23/04:30pm 13.2 WNW 22 32 1007.1 - 0.0 - Partly cloudy 10 - - - -
23/04:26pm 13.2 WNW 21 31 1007.1 - 0.0 - Partly cloudy 10 - - - -
23/04:00pm 13.1 WNW 23 32 1007.5 - 0.0 - Partly cloudy 10 - - - -
23/03:30pm 12.9 WNW 23 33 1007.8 - 0.0 - Partly cloudy 10 - - - -
23/03:12pm 12.9 NW 21 31 1007.8 - 0.0 - Partly cloudy 10 - - - -
23/03:00pm 13.2 NW 22 31 1007.9 - 0.0 - - 10 - - - -
23/02:33pm 13.3 NW 23 34 1008.4 - 0.0 - Partly cloudy 10 - - - -
23/02:30pm 13.2 NW 23 31 1008.4 - 0.0 - Partly cloudy 10 - - - -
23/02:00pm 12.8 NW 21 31 1009.1 - 0.0 - Partly cloudy 10 - - - -
23/01:36pm 13.3 NW 20 30 1009.5 - 0.0 - Partly cloudy 10 - - - -
23/01:30pm 13.1 NW 22 30 1009.7 - 0.0 - Partly cloudy 10 - - - -
23/01:16pm 13.3 NW 22 32 1010.1 - 0.0 - Partly cloudy 10 - - - -
23/01:00pm 13.1 NW 21 30 1010.4 - 0.0 - Partly cloudy 10 - - - -
23/12:30pm 13.1 NW 19 28 1010.9 - 0.0 - Partly cloudy 10 - - - -
23/12:00pm 13.1 NW 21 28 1011.8 - 0.0 - Partly cloudy 10 - - - -
23/11:30am 13.6 NW 21 29 1012.5 - 0.0 - Partly cloudy 10 - - - -
23/11:00am 13.2 NW 20 29 1013.2 - 0.0 - Partly cloudy 10 - - - -
23/10:30am 13.3 NW 19 29 1013.9 - 0.0 - Partly cloudy 10 - - - -
23/10:00am 13.4 NW 19 27 1014.4 - 0.0 - Partly cloudy 10 - - - -
23/09:30am 13.0 NW 19 26 1014.5 - 0.0 - Partly cloudy 10 - - - -
23/09:00am 13.2 WNW 18 28 1014.6 - 0.0 - Mostly cloudy 10 - - - -
23/08:35am 13.1 WNW 18 30 1014.7 - 0.0 - Partly cloudy 10 - - - -
23/08:30am 13.1 WNW 15 22 1014.8 - 0.0 - Partly cloudy 10 - - - -
23/08:00am 13.2 WNW 18 26 1015.0 - 0.0 - Partly cloudy 10 - - - -
23/07:37am 13.3 WNW 18 28 1015.1 - 0.0 - Partly cloudy 10 - - - -
23/07:30am 13.3 WNW 16 23 1015.1 - 0.0 - Partly cloudy 10 - - - -
23/07:00am 13.3 WNW 17 23 1015.0 - 0.0 - Partly cloudy 10 - - - -
23/06:30am 13.3 NW 17 21 1015.0 - 0.0 - Partly cloudy 10 - - - -
23/06:00am 13.3 WNW 15 20 1015.1 - 0.0 - Cloudy 10 - - - -
23/05:47am 13.2 NW 14 19 1015.2 - 0.0 - Partly cloudy 10 - - - -
23/05:30am 13.3 WNW 15 19 1015.3 - 0.0 - Partly cloudy 10 - - - -
23/05:07am 13.2 WNW 15 19 1015.5 - 0.0 - Partly cloudy 10 - - - -
23/05:00am 13.2 WNW 15 20 1015.5 - 0.0 - Partly cloudy 10 - - - -
23/04:50am 13.3 WNW 14 18 1015.6 - 0.0 - Partly cloudy 10 - - - -
23/04:46am 13.3 WNW 14 17 1015.7 - 0.0 - Partly cloudy 10 - - - -
23/04:30am 13.3 WNW 13 19 1015.9 - 0.0 - Partly cloudy 10 - - - -
23/04:13am 13.2 WNW 15 22 1016.0 - 0.0 - Partly cloudy 10 - - - -
23/04:00am 13.1 WNW 14 20 1016.1 - 0.0 - Partly cloudy 10 - - - -
23/03:30am 13.0 NW 14 19 1016.5 - 0.0 - Partly cloudy 10 - - - -
23/03:00am 12.7 NW 13 18 1017.0 - 0.0 - Cloudy 10 - - - -
23/02:30am 12.7 WNW 12 16 1017.4 - 0.0 - Partly cloudy 10 - - - -
23/02:00am 13.0 WNW 13 16 1017.6 - 0.0 - Partly cloudy 10 - - - -
23/01:30am 12.6 NW 11 15 1018.0 - 0.0 - Partly cloudy 10 - - - -
23/01:00am 12.4 NW 11 14 1018.3 - 0.0 - Cloudy 10 - - - -
23/12:30am 12.2 NW 13 17 1018.6 - 0.0 - Cloudy 10 - - - -
23/12:00am 11.8 NW 10 14 1019.2 - 0.0 - Mostly cloudy 10 - - - -
 
Date/Time
EST
Temp
°C
Wind Pressure Rain since
9am
mm
Weather Cloud Vis
km
Sea
Height
m
Swell
Dir  Spd
kts
Gust
kts
hPa Trend Height
m
Period
s
Dir
22/11:30pm 11.4 NW 10 14 1019.7 - 0.0 - Partly cloudy 10 - - - -
22/11:00pm 12.0 NW 10 14 1020.1 - 0.0 - Partly cloudy 10 - - - -
22/10:30pm 11.7 NNW 8 11 1020.3 - 0.0 - Cloudy 10 - - - -
22/10:00pm 10.5 NW 6 8 1020.6 - 0.0 - Cloudy 10 - - - -
22/09:30pm 11.3 NW 9 13 1020.9 - 0.0 - Cloudy 10 - - - -
22/09:00pm 10.5 N 6 8 1021.3 - 0.0 - Cloudy 10 - - - -
22/08:30pm 9.3 NNW 5 6 1021.5 - 0.0 - Cloudy 10 - - - -
22/08:00pm 8.5 NNW 5 6 1021.8 - 0.0 - Partly cloudy 10 - - - -
22/07:30pm 8.5 NW 5 7 1022.1 - 0.0 - Partly cloudy 10 - - - -
22/07:00pm 8.8 N 5 6 1022.2 - 0.0 - Partly cloudy 10 - - - -
22/06:30pm 10.2 N 5 7 1022.3 - 0.0 - Cloudy 10 - - - -
22/06:00pm 10.2 N 6 7 1022.5 - 0.0 - Cloudy 10 - - - -
22/05:30pm 8.9 WNW 6 7 1022.8 - 0.0 - Partly cloudy 10 - - - -
22/05:00pm 10.0 NW 5 7 1023.0 - 0.0 - Cloudy 10 - - - -
22/04:30pm 10.8 WNW 7 9 1023.2 - 0.0 - Cloudy 10 - - - -
22/04:00pm 11.0 W 9 11 1023.4 - 0.0 - Cloudy 10 - - - -
22/03:30pm 11.1 W 8 9 1023.5 - 0.0 - Partly cloudy 10 - - - -

Other Formats:

Comma delimited format used in spreadsheet applications
http://www.bom.gov.au/fwo/IDT60701/IDT60701.94980.axf

JavaScript Object Notation format (JSON) in row-major order
http://www.bom.gov.au/fwo/IDT60701/IDT60701.94980.json